Denison, IA

5:39 PM CDT on September 25, 2017 (GMT -0500)
Denison Municipal

Weather History for KDNS - November, 2013

Change the Weather History Date:

Monday, November 25, 2013

  Actual Average Record
Temperature  
Mean Temperature 33 °F -  
Max Temperature 42 °F 42 °F 60 °F (1997)
Min Temperature 24 °F 26 °F 8 °F (1996)
Degree Days  
Heating Degree Days 32    
Moisture  
Dew Point 21 °F    
Average Humidity 65    
Maximum Humidity 80    
Minimum Humidity 53    
Precipitation  
Precipitation 0.00 in - - ()
Sea Level Pressure  
Sea Level Pressure 30.11 in    
Wind  
Wind Speed 13 mph (West)    
Max Wind Speed 18 mph    
Max Gust Speed 28 mph    
Visibility 10 miles    
Events Snow    
Averages and records for this station are not official NWS values.
T = Trace of Precipitation, MM = Missing Value Source: NWS Daily Summary

Daily Weather History Graph

Daily Weather History Graph

Search for Another Location

Airport or City:

Trip Planner

Search our weather history database for the weather conditions in past years. The results will help you decide how hot, cold, wet, or windy it might be!

Date:

Astronomy

Nov. 25, 2013 Rise Set
Actual Time 7:23 AM CST 4:53 PM CST
Civil Twilight 6:52 AM CST 5:24 PM CST
Nautical Twilight 6:18 AM CST 5:58 PM CST
Astronomical Twilight 5:45 AM CST 6:31 PM CST
Moon No Moon Rise 12:37 PM CST
Length of Visible Light 10h 31m
Length of Day
9h 29m
Waning Gibbous, 51% of the Moon is Illuminated
Nov 25
Waning Gibbous
Nov 25
Last Quarter
Dec 2
New
Dec 9
First Quarter
Dec 17
Full

Hourly Weather History & Observations

Time (CST) Temp. Windchill Dew Point Humidity Pressure Visibility Wind Dir Wind Speed Gust Speed Precip Events Conditions
12:15 AM 24.8 °F 12.4 °F 17.6 °F 74% 30.16 in 1.8 mi SSW 15.0 mph - N/A Snow Light Snow
12:35 AM 24.8 °F 11.1 °F 14.0 °F 64% 30.15 in 10.0 mi SSW 18.4 mph 27.6 mph N/A   Overcast
12:55 AM 24.8 °F 11.1 °F 14.0 °F 64% 30.14 in 7.0 mi SSW 18.4 mph 24.2 mph N/A   Overcast
1:15 AM 24.8 °F 11.5 °F 14.0 °F 64% 30.13 in 10.0 mi SSW 17.3 mph 24.2 mph N/A   Overcast
1:35 AM 26.6 °F 13.8 °F 14.0 °F 59% 30.13 in 10.0 mi SSW 17.3 mph 26.5 mph N/A   Overcast
1:55 AM 26.6 °F 14.3 °F 14.0 °F 59% 30.12 in 10.0 mi SSW 16.1 mph 25.3 mph N/A   Overcast
2:15 AM 26.6 °F 15.2 °F 14.0 °F 59% 30.12 in 10.0 mi SSW 13.8 mph 24.2 mph N/A   Overcast
2:35 AM 26.6 °F 15.2 °F 14.0 °F 59% 30.11 in 10.0 mi SSW 13.8 mph 24.2 mph N/A   Overcast
2:55 AM 26.6 °F 13.8 °F 14.0 °F 59% 30.11 in 10.0 mi SSW 17.3 mph - N/A   Overcast
3:15 AM 26.6 °F 16.2 °F 14.0 °F 59% 30.11 in 10.0 mi SSW 11.5 mph 17.3 mph N/A   Overcast
3:35 AM 26.6 °F 15.7 °F 14.0 °F 59% 30.09 in 10.0 mi SSW 12.7 mph 20.7 mph N/A   Overcast
3:55 AM 26.6 °F 15.2 °F 14.0 °F 59% 30.09 in 10.0 mi SSW 13.8 mph 20.7 mph N/A   Overcast
4:15 AM 26.6 °F 16.8 °F 15.8 °F 64% 30.09 in 10.0 mi SSW 10.4 mph 16.1 mph N/A   Overcast
4:35 AM 26.6 °F 15.2 °F 15.8 °F 64% 30.08 in 10.0 mi SSW 13.8 mph 21.9 mph N/A   Overcast
4:55 AM 26.6 °F 13.4 °F 15.8 °F 64% 30.07 in 10.0 mi SSW 18.4 mph - N/A   Overcast
5:15 AM 26.6 °F 14.7 °F 15.8 °F 64% 30.07 in 10.0 mi SSW 15.0 mph - N/A   Overcast
5:35 AM 26.6 °F 14.3 °F 15.8 °F 64% 30.07 in 10.0 mi SSW 16.1 mph - N/A   Overcast
5:55 AM 26.6 °F 15.2 °F 17.6 °F 69% 30.07 in 10.0 mi SSW 13.8 mph 21.9 mph N/A   Overcast
6:15 AM 26.6 °F 15.7 °F 17.6 °F 69% 30.07 in 10.0 mi SW 12.7 mph 19.6 mph N/A   Overcast
6:35 AM 26.6 °F 15.7 °F 17.6 °F 69% 30.07 in 9.0 mi SW 12.7 mph 18.4 mph N/A   Overcast
6:55 AM 26.6 °F 15.7 °F 17.6 °F 69% 30.08 in 10.0 mi SW 12.7 mph - N/A   Overcast
7:15 AM 26.6 °F 16.8 °F 17.6 °F 69% 30.08 in 10.0 mi SW 10.4 mph 17.3 mph N/A   Overcast
7:35 AM 26.6 °F 14.7 °F 17.6 °F 69% 30.07 in 10.0 mi SW 15.0 mph 20.7 mph N/A   Overcast
7:55 AM 26.6 °F 15.2 °F 19.4 °F 74% 30.07 in 10.0 mi SW 13.8 mph 20.7 mph N/A   Overcast
8:15 AM 26.6 °F 14.3 °F 19.4 °F 74% 30.09 in 10.0 mi SW 16.1 mph - N/A   Mostly Cloudy
8:35 AM 28.4 °F 17.0 °F 19.4 °F 69% 30.10 in 10.0 mi SW 15.0 mph 20.7 mph N/A   Mostly Cloudy
8:55 AM 28.4 °F 17.5 °F 19.4 °F 69% 30.10 in - SW 13.8 mph - N/A   Mostly Cloudy
9:15 AM 28.4 °F 17.0 °F 21.2 °F 74% 30.10 in 10.0 mi SW 15.0 mph - N/A   Partly Cloudy
9:35 AM 30.2 °F 19.3 °F 21.2 °F 69% 30.11 in 10.0 mi WSW 15.0 mph 21.9 mph N/A   Clear
9:55 AM 32.0 °F 22.5 °F 21.2 °F 64% 30.10 in 10.0 mi SW 12.7 mph 19.6 mph N/A   Clear
10:15 AM 32.0 °F 22.5 °F 23.0 °F 69% 30.10 in 10.0 mi WSW 12.7 mph - N/A   Clear
10:35 AM 32.0 °F 21.6 °F 23.0 °F 69% 30.10 in 10.0 mi West 15.0 mph 20.7 mph N/A   Clear
10:55 AM 33.8 °F 24.8 °F 24.8 °F 70% 30.10 in 10.0 mi WSW 12.7 mph - N/A   Clear
11:15 AM 33.8 °F 25.8 °F 24.8 °F 70% 30.09 in 10.0 mi WSW 10.4 mph - N/A   Clear
11:35 AM 33.8 °F 25.8 °F 24.8 °F 70% 30.09 in 10.0 mi West 10.4 mph - N/A   Clear
11:55 AM 35.6 °F 27.5 °F 24.8 °F 65% 30.08 in 10.0 mi WSW 11.5 mph - N/A   Clear
12:15 PM 37.4 °F 29.3 °F 26.6 °F 65% 30.08 in 10.0 mi WSW 12.7 mph 18.4 mph N/A   Clear
12:35 PM 37.4 °F 29.3 °F 26.6 °F 65% 30.08 in 10.0 mi WSW 12.7 mph - N/A   Clear
12:55 PM 39.2 °F 32.5 °F 26.6 °F 61% 30.07 in 10.0 mi WSW 10.4 mph - N/A   Clear
1:15 PM 41.0 °F 34.7 °F 28.4 °F 61% 30.07 in 10.0 mi West 10.4 mph 16.1 mph N/A   Clear
1:35 PM 41.0 °F 34.7 °F 28.4 °F 61% 30.07 in 10.0 mi WNW 10.4 mph - N/A   Clear
1:55 PM 41.0 °F 34.7 °F 28.4 °F 61% 30.07 in 10.0 mi WNW 10.4 mph - N/A   Clear
2:15 PM 41.0 °F 35.2 °F 28.4 °F 61% 30.07 in 10.0 mi WNW 9.2 mph 17.3 mph N/A   Clear
2:35 PM 42.8 °F 37.0 °F 28.4 °F 57% 30.07 in 10.0 mi WNW 10.4 mph 16.1 mph N/A   Clear
2:55 PM 42.8 °F 36.6 °F 26.6 °F 53% 30.07 in 10.0 mi NW 11.5 mph 18.4 mph N/A   Clear
3:15 PM 42.8 °F 35.8 °F 26.6 °F 53% 30.07 in 10.0 mi NW 13.8 mph - N/A   Clear
3:35 PM 42.8 °F 36.2 °F 26.6 °F 53% 30.08 in 10.0 mi NW 12.7 mph 20.7 mph N/A   Clear
3:55 PM 42.8 °F 36.2 °F 26.6 °F 53% 30.08 in 10.0 mi NW 12.7 mph - N/A   Clear
4:15 PM 41.0 °F 33.1 °F 26.6 °F 57% 30.10 in 10.0 mi NW 15.0 mph - N/A   Clear
4:35 PM 39.2 °F 34.2 °F 26.6 °F 61% 30.10 in 10.0 mi NW 6.9 mph 13.8 mph N/A   Clear
4:55 PM 37.4 °F 29.8 °F 24.8 °F 60% 30.10 in 10.0 mi NW 11.5 mph - N/A   Clear
5:15 PM 37.4 °F 30.8 °F 24.8 °F 60% 30.11 in 10.0 mi NW 9.2 mph - N/A   Clear
5:35 PM 37.4 °F 30.3 °F 24.8 °F 60% 30.12 in 10.0 mi NW 10.4 mph - N/A   Clear
5:55 PM 37.4 °F 33.8 °F 24.8 °F 60% 30.12 in 10.0 mi WNW 4.6 mph 12.7 mph N/A   Clear
6:15 PM 35.6 °F 28.6 °F 24.8 °F 65% 30.13 in 10.0 mi NW 9.2 mph - N/A   Clear
6:35 PM 35.6 °F 29.2 °F 24.8 °F 65% 30.13 in 10.0 mi NW 8.1 mph - N/A   Clear
6:55 PM 35.6 °F 28.6 °F 24.8 °F 65% 30.13 in 10.0 mi NW 9.2 mph - N/A   Clear
7:15 PM 35.6 °F 28.6 °F 24.8 °F 65% 30.14 in 10.0 mi NW 9.2 mph - N/A   Clear
7:35 PM 33.8 °F 26.4 °F 24.8 °F 70% 30.14 in 10.0 mi NW 9.2 mph - N/A   Clear
7:55 PM 33.8 °F 27.0 °F 24.8 °F 70% 30.14 in - NW 8.1 mph - N/A   Clear
8:15 PM 33.8 °F 25.3 °F 24.8 °F 70% 30.14 in 10.0 mi NW 11.5 mph - N/A   Clear
8:35 PM 33.8 °F 24.8 °F 24.8 °F 70% 30.14 in 10.0 mi NNW 12.7 mph - N/A   Clear
8:55 PM 33.8 °F 24.3 °F 23.0 °F 65% 30.13 in 10.0 mi NNW 13.8 mph - N/A   Clear
9:15 PM 33.8 °F 25.3 °F 23.0 °F 65% 30.14 in 10.0 mi NNW 11.5 mph - N/A   Clear
9:35 PM 32.0 °F 25.6 °F 23.0 °F 69% 30.14 in 10.0 mi NNW 6.9 mph - N/A   Clear
9:55 PM 30.2 °F - 23.0 °F 75% 30.15 in 10.0 mi Calm Calm - N/A   Clear
10:15 PM 30.2 °F - 21.2 °F 69% 30.16 in 10.0 mi Calm Calm - N/A   Clear
10:35 PM 28.4 °F 24.6 °F 21.2 °F 74% 30.16 in 10.0 mi West 3.5 mph - N/A   Clear
10:55 PM 30.2 °F 24.3 °F 21.2 °F 69% 30.16 in 10.0 mi WNW 5.8 mph - N/A   Clear
11:15 PM 28.4 °F 21.2 °F 21.2 °F 74% 30.16 in 10.0 mi WNW 6.9 mph - N/A   Clear
11:35 PM 26.6 °F 19.1 °F 21.2 °F 80% 30.16 in 10.0 mi WNW 6.9 mph - N/A   Clear
11:55 PM 26.6 °F 21.2 °F 21.2 °F 80% 30.16 in 10.0 mi WNW 4.6 mph - N/A   Clear